[[{"header":{"parameterUnit":"m.s-1","parameterCategory":1,"la1":30.2991,"la2":30.254,"lo1":-89.0895,"lo2":-89.0444,"dy":0.0017,"dx":0.0017,"nx":28,"ny":28,"refTime":"2025-11-29T03:00:00:Z","depth":0,"parameterNumber":2,"parameterNumberName":"U-component_of_WINDS"},"data":[0,0,0,0,0,0,0,0,0,0,0,0,0,0,0,0,0,0,0,0,0,0,0,0,0,0,0,0,0,0,0,0,0,0,0,0,0,0,0,0,0,0,0,0,0,0,0,0,0,0,0,0,0,0,0,0,0,0,-7.3271,-7.3272,0,-7.3345,-7.3346,-7.3347,-7.3184,-7.3179,-7.3174,-7.3169,-7.3244,-7.325,-7.3257,0,0,0,0,0,0,0,0,0,0,0,0,0,-7.2987,-7.2994,-7.3271,-7.3272,-7.3273,-7.3345,-7.3346,-7.3347,-7.3185,-7.3179,-7.3172,-7.3166,-7.3241,-7.325,-7.3258,0,0,0,0,0,0,0,0,0,0,0,0,0,-7.3091,-7.2996,-7.3271,-7.3201,-7.3195,-7.3345,-7.3346,-7.3347,-7.3186,-7.3178,-7.3171,-7.3163,-7.3239,-7.3249,-7.3259,-7.348,0,0,-7.3291,-7.3295,0,0,0,0,0,0,0,0,-7.3085,-7.3102,-7.321,-7.3206,-7.32,-7.3247,-7.3273,-7.3392,-7.3188,-7.319,-7.3169,-7.3159,-7.3251,-7.326,-7.3291,-7.3483,-7.3487,-7.3291,-7.3298,-7.3302,-7.3305,0,0,0,0,0,0,0,-7.3079,-7.3098,-7.33,-7.3212,-7.3206,-7.3165,-7.3171,-7.3295,-7.3264,-7.3189,-7.3177,-7.3188,-7.3247,-7.3282,-7.3292,-7.3488,-7.3291,-7.33,-7.3307,-7.3311,-7.3861,-7.3869,0,0,0,0,0,0,-7.308,-7.3093,-7.3298,-7.3303,-7.3122,-7.3177,-7.3183,-7.324,-7.3262,-7.3258,-7.3195,-7.3181,-7.3268,-7.328,-7.3294,-7.3549,-7.3302,-7.3312,-7.3318,-7.3853,-7.3863,-7.3872,0,0,0,0,0,0,-7.3075,-7.31,-7.3295,-7.3195,-7.3216,-7.319,-7.3255,-7.3246,-7.328,-7.3266,-7.326,-7.3236,-7.3262,-7.3279,-7.3434,-7.355,-7.3316,-7.3326,-7.3843,-7.3856,-7.3867,-7.4066,0,0,0,0,0,0,-7.3068,-7.3099,-7.3183,-7.3198,-7.3222,-7.3435,-7.3262,-7.3253,-7.3298,-7.328,-7.3303,-7.33,-7.3257,-7.3419,-7.3444,-7.356,-7.3334,-7.3832,-7.3848,-7.3863,-7.4049,-7.4084,-7.4114,0,0,0,0,0,-7.3058,-7.3237,-7.3189,-7.3214,-7.3327,-7.3442,-7.3456,-7.3404,-7.3309,-7.3392,-7.3383,-7.3299,-7.3535,-7.3437,-7.3463,-7.3584,-7.3824,-7.3844,-7.3862,-7.4034,-7.4077,-7.4113,0,0,0,0,0,0,-7.3237,-7.3238,-7.3184,-7.3373,-7.3409,-7.3414,-7.3518,-7.3451,-7.3515,-7.3495,-7.3427,-7.3434,-7.3601,-7.3609,-7.3499,-7.3797,-7.3663,-7.3688,-7.3785,-7.3825,-7.3857,-7.3849,-7.3342,0,0,0,0,0,-7.3299,-7.3393,-7.3388,-7.3556,-7.3576,-7.3545,-7.3593,-7.355,-7.3584,-7.3598,-7.36,-7.3637,-7.3718,-7.3773,-7.3848,-7.4051,-7.4051,-7.4147,-7.418,-7.4207,-7.4227,-7.4331,-7.4372,-7.3934,-7.3934,-7.3934,0,0,-7.3427,-7.3439,-7.3502,-7.3592,-7.3614,-7.3711,-7.3559,-7.3669,-7.3739,-7.3615,-7.3759,-7.3763,-7.3799,-7.3978,-7.4057,-7.3989,-7.4349,-7.4231,-7.4252,-7.4258,-7.4355,-7.4396,-7.4433,-7.3947,-7.3945,-7.3943,0,0,-7.3707,-7.3729,-7.3868,-7.3894,-7.393,-7.3907,-7.3942,-7.3958,-7.3955,-7.4099,-7.4007,-7.4091,-7.4234,-7.4262,-7.4295,-7.4587,-7.4511,-7.4614,-7.4782,-7.4884,-7.4918,-7.4948,-7.5048,-7.5085,-7.4636,-7.4637,-7.4637,0,-7.3861,-7.4004,-7.3948,-7.4064,-7.4104,-7.3997,-7.4136,-7.4164,-7.4224,-7.4254,-7.4178,-7.4353,-7.4371,-7.4552,-7.4623,-7.4656,-7.469,-7.4608,-7.4918,-7.4948,-7.4975,-7.5069,-7.5107,-7.4649,-7.4647,-7.4646,-7.4645,0,-7.4189,-7.429,-7.4399,-7.4457,-7.4511,-7.4639,-7.46,-7.4661,-7.4615,-7.46,-7.4747,-7.4765,-7.4839,-7.488,-7.4836,-7.5056,-7.5012,-7.493,-7.4792,-7.5029,-7.5116,-7.5152,-7.4666,-7.4661,-7.4658,-7.4655,0,0,-7.4581,-7.4607,-7.4647,-7.4671,-7.4704,-7.478,-7.4903,-7.4975,-7.5027,-7.5073,-7.517,-7.5295,-7.5217,-7.5255,-7.5213,-7.5304,-7.5529,-7.5209,-7.5209,-7.5263,-7.5766,-7.5824,-7.5867,-7.5481,-7.5488,-7.5493,-7.5762,0,-7.4855,-7.5063,-7.5016,-7.5222,-7.5312,-7.5212,-7.5318,-7.5349,-7.534,-7.5415,-7.5404,-7.5491,-7.5385,-7.5406,-7.5492,-7.5483,-7.5628,-7.5464,-7.5568,-7.5572,-7.5556,-7.5913,-7.5975,-7.6228,-7.5796,-7.5802,-7.5806,0,-7.5201,-7.5258,-7.5472,-7.5487,-7.5523,-7.5619,-7.568,-7.5755,-7.5788,-7.5774,-7.5817,-7.5758,-7.5877,-7.5744,-7.5905,-7.5795,-7.5836,-7.5838,-7.5847,-7.5849,-7.5699,-7.592,-7.6308,-7.6343,-7.586,-7.5856,-7.5852,0,-7.5458,-7.5589,-7.5733,-7.5757,-7.5781,-7.5849,-7.5862,-7.5887,-7.5934,-7.5988,-7.6017,-7.6086,-7.6122,-7.6177,-7.6136,-7.6044,-7.6304,-7.6168,-7.6293,-7.6294,-7.6347,-7.6343,-7.674,-7.6384,-7.6383,-7.6383,-7.6382,0,-7.5765,-7.5898,-7.5848,-7.5936,-7.6082,-7.6028,-7.6174,-7.6175,-7.6198,-7.6284,-7.6204,-7.6286,-7.6231,-7.6308,-7.6279,-7.6415,-7.6434,-7.6424,-7.6413,-7.6427,-7.6428,-7.6448,-7.6428,-7.6393,-7.639,-7.6388,-7.6387,0,-7.6074,-7.6047,-7.6196,-7.6206,-7.6211,-7.6318,-7.6326,-7.6407,-7.6393,-7.6502,-7.6524,-7.6501,-7.6588,-7.6555,-7.6648,-7.6628,-7.68,-7.677,-7.6788,-7.6778,-7.6903,-7.6889,-7.7322,-7.7374,-7.699,-7.6994,-7.6997,0,-7.6268,-7.6368,-7.6389,-7.644,-7.6458,-7.6543,-7.6589,-7.6541,-7.6592,-7.6636,-7.6712,-7.6791,-7.6851,-7.6995,-7.6986,-7.7056,-7.7023,-7.717,-7.7032,-7.7043,-7.7018,-7.701,-7.7017,-7.7195,-7.72,-7.7203,-7.7206,0,-7.6614,-7.6596,-7.6665,-7.6731,-7.6788,-7.6838,-7.688,-7.6927,-7.688,-7.6942,-7.7029,-7.7076,-7.717,-7.7249,-7.7312,-7.7324,-7.7257,-7.7251,-7.7282,-7.7294,-7.7299,-7.7292,-7.6856,-7.7239,-7.7236,-7.7234,-7.7232,-7.7231,-7.6868,-7.695,-7.6977,-7.7057,-7.7084,-7.7125,-7.72,-7.7196,-7.7267,-7.7339,-7.7307,-7.7407,-7.7436,-7.7513,-7.7535,-7.7612,-7.7554,-7.7602,-7.7612,-7.7623,-7.7636,-7.7292,-7.7624,-7.7623,-7.7622,-7.7621,-7.7621,0,-7.7204,-7.7216,-7.7291,-7.7352,-7.7414,-7.7349,-7.7392,-7.7448,-7.7537,-7.757,-7.7631,-7.773,-7.7807,-7.7805,-7.7875,-7.7937,-7.7908,-7.7956,-7.7948,-7.7951,-7.7687,-7.765,-7.7979,-7.7978,-7.7978,-7.7978,-7.7978,-7.7978,-7.7386,-7.7521,-7.7506,-7.7653,-7.7664,-7.7761,-7.7791,-7.7828,-7.7853,-7.7967,-7.803,-7.8029,-7.8048,-7.8119,-7.8185,-7.8182,-7.8209,-7.8269,-7.8255,-7.8006,-7.797,-7.7936,-7.79,-7.8277,-7.8277,-7.8511,-7.8513,-7.8515]},{"header":{"parameterUnit":"m.s-1","parameterCategory":1,"la1":30.2991,"la2":30.254,"lo1":-89.0895,"lo2":-89.0444,"dy":0.0017,"dx":0.0017,"nx":28,"ny":28,"refTime":"2025-11-29T03:00:00:Z","depth":0,"parameterNumber":3,"parameterNumberName":"V-component_of_WINDS"},"data":[0,0,0,0,0,0,0,0,0,0,0,0,0,0,0,0,0,0,0,0,0,0,0,0,0,0,0,0,0,0,0,0,0,0,0,0,0,0,0,0,0,0,0,0,0,0,0,0,0,0,0,0,0,0,0,0,0,0,2.0811,2.081,0,2.0719,2.0718,2.0717,2.0512,2.0508,2.0503,2.0499,2.0413,2.0415,2.0416,0,0,0,0,0,0,0,0,0,0,0,0,0,2.0815,2.0816,2.0811,2.081,2.0809,2.072,2.0718,2.0717,2.0513,2.0508,2.0502,2.0498,2.0412,2.0414,2.0416,0,0,0,0,0,0,0,0,0,0,0,0,0,2.0778,2.0816,2.0811,2.0696,2.0684,2.072,2.0718,2.0717,2.0514,2.0507,2.0501,2.0495,2.0412,2.0414,2.0417,2.0559,0,0,2.0424,2.0425,0,0,0,0,0,0,0,0,2.078,2.0778,2.0714,2.0704,2.0691,2.062,2.0688,2.0664,2.0515,2.0579,2.0499,2.0492,2.0488,2.0483,2.048,2.0555,2.0551,2.0424,2.0426,2.0427,2.0428,0,0,0,0,0,0,0,2.0783,2.0781,2.0775,2.0713,2.0699,2.0651,2.0638,2.0682,2.057,2.0573,2.0558,2.0549,2.048,2.0479,2.0477,2.055,2.0424,2.0427,2.0428,2.0429,2.0738,2.0744,0,0,0,0,0,0,2.0801,2.0784,2.0778,2.0772,2.0721,2.0656,2.0642,2.065,2.0569,2.0551,2.0555,2.054,2.0478,2.0474,2.0473,2.0635,2.0427,2.0429,2.0431,2.0731,2.0739,2.0747,0,0,0,0,0,0,2.0802,2.0803,2.0781,2.0774,2.0767,2.0662,2.0673,2.0651,2.0649,2.0555,2.0535,2.0573,2.0472,2.047,2.0539,2.0629,2.043,2.0433,2.0723,2.0734,2.0743,2.096,0,0,0,0,0,0,2.0803,2.0804,2.0856,2.0777,2.0769,2.0847,2.0678,2.0654,2.0653,2.0633,2.0567,2.055,2.0467,2.0536,2.0541,2.0629,2.0435,2.0715,2.0728,2.074,2.0944,2.0976,2.1003,0,0,0,0,0,2.0804,2.0922,2.0859,2.086,2.083,2.0853,2.0848,2.0748,2.0661,2.0713,2.0653,2.0553,2.0618,2.0545,2.0549,2.0639,2.0709,2.0724,2.0739,2.0931,2.097,2.1003,0,0,0,0,0,0,2.1016,2.0909,2.0839,2.0934,2.0904,2.0818,2.088,2.0793,2.0788,2.077,2.0648,2.0635,2.0721,2.0687,2.0607,2.0773,2.0647,2.0664,2.0792,2.0828,2.0857,2.0864,2.0437,0,0,0,0,0,2.1074,2.1099,2.1004,2.1098,2.1086,2.0987,2.0992,2.0918,2.0883,2.087,2.0814,2.0786,2.08,2.0812,2.082,2.0938,2.0922,2.1002,2.1032,2.1056,2.1072,2.1133,2.1168,2.0796,2.0796,2.0796,0,0,2.1193,2.1138,2.1161,2.1139,2.1106,2.1137,2.0977,2.1016,2.1038,2.0876,2.0937,2.0897,2.0857,2.0952,2.0991,2.0926,2.1171,2.1076,2.1096,2.1098,2.1152,2.1188,2.1219,2.0807,2.0805,2.0803,0,0,2.1427,2.1387,2.146,2.1431,2.1384,2.1317,2.1335,2.1262,2.1228,2.1288,2.1167,2.1193,2.1219,2.1196,2.1188,2.1415,2.1323,2.1421,2.1576,2.1637,2.1666,2.1692,2.1773,2.1804,2.1437,2.1438,2.1438,0,2.1582,2.1621,2.1509,2.1556,2.1551,2.1403,2.1478,2.1456,2.1415,2.1416,2.1343,2.1373,2.1337,2.1424,2.1479,2.1478,2.1496,2.1428,2.167,2.1695,2.1717,2.1793,2.1824,2.145,2.1449,2.1447,2.1446,0,2.1815,2.1844,2.1909,2.1871,2.1873,2.1934,2.1834,2.185,2.1776,2.1717,2.1781,2.1731,2.1727,2.1742,2.1671,2.1821,2.1782,2.1692,2.1563,2.1767,2.1836,2.1865,2.1468,2.1463,2.146,2.1457,0,0,2.2179,2.2078,2.2104,2.2085,2.2023,2.2044,2.21,2.2093,2.2109,2.2087,2.2131,2.2158,2.2074,2.2066,2.1991,2.2044,2.2228,2.1947,2.1944,2.2002,2.2391,2.2459,2.2495,2.2167,2.2172,2.2176,2.2395,0,2.2397,2.2483,2.2385,2.2492,2.2519,2.238,2.2428,2.2397,2.2345,2.2362,2.2304,2.2325,2.2213,2.2207,2.2253,2.2196,2.2305,2.2179,2.2209,2.2211,2.2223,2.2531,2.2603,2.2812,2.2421,2.2426,2.2429,0,2.2664,2.2652,2.2762,2.2693,2.27,2.2745,2.2732,2.2749,2.2712,2.267,2.2661,2.257,2.2622,2.2497,2.2568,2.2485,2.2491,2.2465,2.2471,2.247,2.2333,2.2539,2.2876,2.2908,2.2471,2.2467,2.2464,0,2.2919,2.293,2.2997,2.2986,2.2907,2.2942,2.2912,2.2867,2.287,2.286,2.286,2.2858,2.2856,2.2857,2.2769,2.2686,2.2852,2.2719,2.282,2.2823,2.2861,2.286,2.3204,2.2866,2.2866,2.2865,2.2864,0,2.3173,2.3246,2.3111,2.3152,2.323,2.3118,2.32,2.3155,2.3118,2.315,2.3031,2.3064,2.2945,2.2967,2.2899,2.2969,2.2969,2.2938,2.2919,2.2949,2.2953,2.2952,2.2935,2.2873,2.2871,2.287,2.2868,0,2.3471,2.3383,2.3447,2.3367,2.3349,2.341,2.3343,2.3379,2.3319,2.3362,2.3366,2.3273,2.3292,2.3204,2.3209,2.3163,2.3268,2.3224,2.328,2.3267,2.3373,2.3364,2.3728,2.3771,2.3406,2.341,2.3413,0,2.3639,2.3692,2.3617,2.3629,2.3604,2.3625,2.3627,2.3519,2.3527,2.3489,2.3531,2.354,2.3541,2.3579,2.3513,2.3517,2.3473,2.36,2.3473,2.3501,2.3475,2.3473,2.3479,2.3627,2.3632,2.3635,2.3638,0,2.3947,2.3901,2.3907,2.3899,2.3903,2.3892,2.3873,2.3891,2.3775,2.379,2.3807,2.3808,2.3812,2.3823,2.3813,2.3784,2.3694,2.3679,2.3702,2.3733,2.3763,2.3749,2.3353,2.3671,2.3668,2.3665,2.3664,2.3662,2.4185,2.4225,2.4179,2.419,2.4164,2.415,2.418,2.4123,2.4135,2.4128,2.4065,2.4095,2.4058,2.4035,2.4015,2.4038,2.3978,2.4013,2.4021,2.4031,2.405,2.376,2.4036,2.4035,2.4034,2.4033,2.4032,0,2.4487,2.445,2.4462,2.4438,2.4447,2.4359,2.4333,2.4348,2.4375,2.4347,2.435,2.4371,2.4382,2.4318,2.432,2.4352,2.431,2.4356,2.4353,2.4348,2.4103,2.4082,2.439,2.439,2.439,2.439,2.4389,2.4389,2.4645,2.4709,2.4658,2.4709,2.4672,2.4698,2.4692,2.4678,2.4655,2.4683,2.4691,2.4648,2.4606,2.4605,2.4612,2.4592,2.4599,2.466,2.4627,2.44,2.4365,2.4332,2.4312,2.4662,2.4663,2.487,2.4872,2.4873]}]]